Location: Otoka
(44.9600°N, 16.1792°E)
Time: 12:41:18
(UTC+00:00)

Daily predictions for brighter satellites

Satellite Brightness Start Highest point End
(mag) Time Altitude Azimuth Time Altitude Azimuth Time Altitude Azimuth
Cosmos 1844 Rocket 2.7 18:39:54 10° SSW 18:45:28 85° ESE 18:51:05 10° NNE
BREEZE-M R/B 1.7 18:42:45 10° WSW 18:45:46 79° SSE 18:48:10 10° ENE
Cosmos 1606 2.8 18:44:52 10° S 18:48:37 80° W 18:52:27 10° N
ERS-2 2.7 18:46:33 10° N 18:50:08 63° WNW 18:53:43 10° SSW
CZ-4C R/B 3.7 18:43:40 10° NNW 18:50:15 41° NE 18:57:53 10° ESE
Cosmos 1782 4.1 18:47:58 10° SE 18:51:07 22° E 18:54:15 10° NE
Cosmos 1242 Rocket 3.1 18:51:49 10° SSE 18:55:08 37° E 18:58:27 10° NNE
Cosmos 1805 Rocket 3.5 18:52:10 10° N 18:56:32 77° E 19:00:53 10° SSE
SJ-6B 3.4 18:57:42 10° S 19:01:31 58° W 19:05:28 10° NNW
MOS 1 4.3 18:56:35 10° SSE 19:02:15 86° ENE 19:07:58 10° NNW
Cosmos 1633 Rocket 3.9 18:58:40 10° N 19:02:42 34° ENE 19:06:32 11° SE
MOS 1-B Rocket 4.4 18:55:33 10° NNE 19:03:04 87° ESE 19:09:24 10° SSW
ATLAS 5 CENTAUR R/B 2.4 18:58:11 10° NW 19:03:49 77° NE 19:10:14 11° SE
Meteor 1-25 Rocket 4.4 18:59:59 10° N 19:05:50 67° ENE 19:11:38 10° SSE
Cosmos 1503 Rocket 3.9 19:03:23 10° S 19:08:31 70° ESE 19:13:43 10° NNE
DELTA 2 R/B (1) 4.5 19:03:53 10° W 19:08:55 35° SSW 19:13:26 12° SE
USA 306 4.4 19:05:16 10° NW 19:09:04 31° NNE 19:12:54 10° E
Cosmos 1386 Rocket 4.4 19:03:09 10° N 19:09:13 84° E 19:15:19 10° S
Cosmos 1328 Rocket 4.4 19:08:04 10° SSE 19:12:01 33° E 19:15:59 10° NNE
Cosmos 1812 4.3 19:12:18 13° ESE 19:14:10 18° E 19:16:50 10° NE
Cosmos 1844 4.1 19:09:43 10° SSW 19:15:25 71° WNW 19:21:06 10° NNE
BREEZE-M DEB (TANK) 4.1 19:14:44 10° WSW 19:16:15 15° SSW 19:18:12 10° S
Ariane Rocket 3.2 19:12:07 10° S 19:17:09 73° WSW 19:22:14 10° NNW
ARIANE 5 R/B 4.0 19:14:50 12° ESE 19:17:41 23° ENE 19:21:06 10° NNE
Cosmos 1833 Rocket 3.5 19:15:51 10° NNW 19:21:05 37° NE 19:25:22 14° ESE
Resurs 1-3 3.9 19:17:06 10° S 19:21:27 69° WSW 19:25:50 10° NNW
SL-4 R/B 4.2 19:18:39 10° W 19:21:56 21° SW 19:25:20 10° S
Cosmos 1745 Rocket 4.2 19:17:04 10° NNW 19:23:16 76° W 19:29:22 10° S
Meteor 2-17 Rocket 4.5 19:19:08 10° N 19:25:19 73° E 19:31:24 10° SSE
Cosmos 1709 Rocket 4.0 19:19:36 10° N 19:25:43 68° E 19:31:35 11° SSE
BREEZE-M DEB (TANK) 4.1 19:26:23 10° WNW 19:30:40 76° SSW 19:38:54 13° ESE
Cosmos 1666 Rocket 3.5 19:26:44 10° N 19:31:09 81° E 19:34:59 13° S
Cosmos 1437 2.8 19:33:32 23° SSE 19:34:57 43° E 19:37:41 10° NNE
USA 307 4.1 19:31:52 10° NW 19:35:51 37° NNE 19:39:32 12° E
CZ-2C R/B 3.8 19:33:38 10° NNE 19:38:04 56° E 19:42:31 10° S
NOSS 3-3 (A) 3.8 19:33:01 10° SSW 19:38:42 78° SE 19:45:13 10° NE
NOSS 3-3 (C) 3.8 19:33:07 10° SSW 19:38:49 78° SE 19:45:19 10° NE
Cosmos 1354 Rocket 4.3 19:36:28 10° SSW 19:41:41 72° WNW 19:46:57 10° NNE
ATLAS 2AS CENTAUR R/B 4.1 19:36:45 10° NNW 19:43:19 31° NNE 19:49:28 10° E
USA 245 2.8 19:43:37 32° E 19:43:46 32° ENE 19:45:50 10° N
SJ 16-02 2.3 19:42:36 22° SE 19:44:22 29° E 19:48:12 10° NE
Sich 1 4.2 19:41:08 10° NNW 19:45:13 41° W 19:49:19 10° SSW
OBJECT-B 3.7 19:44:16 10° WSW 19:45:57 13° W 19:47:39 10° WNW
SPOT 1/Viking Rocket 3.6 19:42:56 19° SSE 19:46:44 68° ENE 19:51:54 10° N
Meteor 1-26 Rocket 4.3 19:41:32 10° S 19:47:14 84° W 19:52:48 10° N
Cosmos 2315 Rocket 4.0 19:42:38 10° S 19:49:01 87° E 19:55:26 10° N
USA 308 3.9 19:45:26 10° NW 19:49:32 42° NNE 19:52:37 16° E
Cosmos 1500 3.0 19:50:32 10° N 19:54:17 74° E 19:56:07 28° SSE
Iridium 4 Rocket 4.3 19:51:13 22° SE 19:54:36 43° E 20:00:08 10° NNE
Terra 3.0 19:54:08 20° ESE 19:56:16 28° ENE 20:00:20 10° N
BREEZE M DEB (TANK) 2.8 19:54:01 10° WNW 19:58:25 44° N 19:59:40 22° ENE
Meteor 1-14 Rocket 4.3 19:54:22 10° N 20:00:17 89° E 20:04:21 20° S
Cosmos 2082 Rocket 3.0 19:55:39 10° NNW 20:00:56 39° NE 20:03:59 22° ESE
SPOT 3 Rocket 4.1 19:56:54 13° S 20:01:23 56° W 20:06:28 10° NNW
Cosmos 1151 Rocket 3.6 19:57:27 10° SSW 20:01:45 58° WNW 20:06:06 10° N
SPOT 5 3.5 19:59:19 25° SE 20:01:56 46° ENE 20:06:58 10° N
OE (NEXTSAT) 4.3 19:59:40 10° W 20:03:07 67° SSW 20:04:07 42° SE
X-37B 1.4 20:01:29 10° W 20:04:26 34° SSW 20:04:43 33° SSW
CREW DRAGON DEMO-1 DEB 3.5 20:02:10 10° NW 20:04:42 39° NNE 20:05:17 33° ENE
Resurs 01 Rocket 2.8 20:02:15 12° SSW 20:06:09 40° W 20:10:21 10° NNW
Cosmos 2084 4.0 20:03:06 10° SW 20:07:11 58° NW 20:11:23 10° NNE
COSMOS 2406 3.2 20:01:43 10° NNW 20:07:26 80° ENE 20:10:34 28° SSE
Cosmos 2228 Rocket 3.9 20:08:07 29° ESE 20:09:00 32° E 20:12:58 10° NNE
Meteor 2-6 Rocket 4.0 20:12:08 20° S 20:15:58 77° E 20:21:30 10° NNE
Cosmos 1538 Rocket 4.0 20:10:49 10° NNW 20:16:13 80° ENE 20:18:46 32° SSE
Meteor 1-27 Rocket 4.4 20:16:22 29° SE 20:18:30 40° E 20:23:57 10° NNE
Cosmos 1271 Rocket 2.9 20:19:15 43° SSE 20:20:13 57° E 20:24:09 10° NNE
Spot 2 Rocket 3.6 20:22:06 28° S 20:24:47 75° WSW 20:29:51 10° NNW
Cosmos 2278 Rocket 2.2 20:19:14 10° SSW 20:24:54 88° WNW 20:30:36 10° NNE
BREEZE-M DEB (TANK) 2.4 20:25:59 10° WNW 20:27:54 36° NNE 20:27:55 36° NNE
USA 305 2.9 20:25:49 10° NW 20:30:05 74° NNE 20:31:23 43° ESE
Cosmos 1943 Rocket 3.6 20:32:26 20° E 20:32:26 20° E 20:36:02 10° NE
ERS-1 Rocket 2.9 20:30:20 37° SSE 20:32:23 86° ENE 20:37:27 10° NNW
Cosmos 1515 Rocket 3.9 20:29:38 21° SSW 20:32:27 62° W 20:36:49 10° N
Cosmos 1680 Rocket 4.3 20:27:39 10° N 20:32:40 39° ENE 20:34:33 30° ESE
BREEZE-M DEB (TANK) 4.5 20:30:26 10° WNW 20:34:51 21° WSW 20:35:39 19° SW
Cosmos 1869 Rocket 3.7 20:33:57 10° N 20:38:12 54° ENE 20:38:55 48° ESE
CZ-4C R/B 3.2 20:32:01 10° NW 20:39:19 64° WSW 20:43:46 30° SSE
Meteor 1-11 Rocket 3.8 20:39:33 10° N 20:45:35 82° E 20:47:54 39° SSE
ATLAS 5 CENTAUR R/B 4.1 20:43:39 10° WNW 20:48:12 23° WSW 20:51:47 15° SSW
USA 306 2.7 20:45:08 10° NW 20:49:25 84° SW 20:49:58 67° SE
Cosmos 1812 4.3 20:47:18 17° SW 20:49:40 33° WNW 20:53:12 10° N
ARIANE 5 R/B 3.7 20:52:22 27° SW 20:53:57 37° W 20:57:59 10° NNW
Cosmos 1340 Rocket 3.3 20:51:28 10° N 20:55:25 46° ENE 20:55:28 46° ENE
Cosmos 1707 Rocket 4.1 20:55:53 41° E 20:55:53 41° E 20:59:52 10° NNE
Cosmos 1666 3.8 20:56:23 10° NNW 20:59:47 34° W 21:00:28 31° WSW
Meteor 2-12 Rocket 4.4 20:57:00 10° NNW 21:03:04 77° W 21:05:22 40° S
Cosmos 1833 Rocket 3.7 20:59:50 10° NW 21:04:59 37° WSW 21:07:04 28° SSW
SL-24 DEB 4.2 21:05:35 58° SSW 21:06:26 77° W 21:11:03 10° N
Cosmos 2154 Rocket 4.0 21:01:01 10° N 21:07:22 81° W 21:09:43 41° S
Cosmos 1898 Rocket 3.5 21:07:15 55° SE 21:07:59 62° ESE 21:13:15 10° NNE
BREEZE-M R/B 3.8 21:05:46 10° WNW 21:07:49 30° N 21:07:49 30° N
Cosmos 923 Rocket 3.9 21:03:46 10° NNW 21:09:04 82° WSW 21:10:12 56° S
Cosmos 1536 2.8 21:06:25 10° NNW 21:10:28 75° W 21:10:33 75° WSW
Cosmos 1743 3.0 21:11:04 10° N 21:14:28 58° NE 21:14:28 58° NE
USA 307 3.2 21:11:48 10° WNW 21:15:37 55° WSW 21:15:37 55° WSW
H-2A R/B 4.0 21:13:19 10° N 21:17:25 54° WNW 21:18:18 44° WSW
Cosmos 962 Rocket 4.4 21:15:12 10° N 21:21:21 78° E 21:22:55 52° SSE
Cosmos 990 Rocket 3.9 21:20:01 50° SSW 21:21:25 84° WNW 21:26:43 10° NNE
NOSS 3-4 (A) 4.0 21:14:30 10° NW 21:21:29 64° WSW 21:24:06 42° S
NOSS 3-4 (C) 4.0 21:14:36 10° NW 21:21:36 64° WSW 21:24:12 42° S
SJ 16-02 3.1 21:19:29 13° WSW 21:22:53 29° WNW 21:26:47 10° N
Nadezhda 1 Rocket 4.3 21:19:52 31° SSW 21:22:57 64° W 21:29:11 10° N
Cosmos 2297 3.6 21:22:46 58° S 21:23:48 72° ESE 21:29:29 10° NNE
Cosmos 1975 4.3 21:21:48 10° NNE 21:24:44 27° ENE 21:24:44 27° ENE
Cosmos 1733 Rocket 3.2 21:23:46 10° N 21:27:49 59° ENE 21:27:49 59° ENE
Cosmos 1461 4.5 21:31:04 28° ENE 21:31:04 28° ENE 21:33:42 10° NE
USA 308 3.8 21:25:28 10° WNW 21:28:43 40° WSW 21:28:43 40° WSW
Cosmos 1900 4.2 21:30:20 74° SSE 21:30:40 78° ESE 21:35:45 10° NE
Terra 2.9 21:33:01 32° WSW 21:33:54 35° W 21:38:16 10° NNW
Meteor 1-18 Rocket 4.4 21:33:59 50° ESE 21:34:23 51° E 21:39:48 10° NNE
USA 215 4.4 21:28:32 10° E 21:34:30 39° NNE 21:40:28 10° NW
ATLAS 2AS CENTAUR R/B 2.7 21:27:45 10° NW 21:35:07 83° SW 21:37:04 51° SSE
Cosmos 1544 4.2 21:34:14 10° NNW 21:37:03 40° WNW 21:37:03 40° WNW
ERBS 4.2 21:40:49 10° NNW 21:43:15 28° N 21:43:15 28° N
Cosmos 2082 Rocket 3.1 21:39:54 10° NW 21:44:55 34° WSW 21:45:50 32° SW
Cosmos 2181 Rocket 3.9 21:44:37 60° SSE 21:45:43 75° E 21:51:52 10° NNE
Cosmos 2112 Rocket 4.2 21:42:26 10° NNW 21:47:42 59° WSW 21:48:11 56° SW
Cosmos 44 3.4 21:46:23 10° NW 21:51:49 73° WSW 21:51:59 73° SW
Cosmos 967 Rocket 4.4 21:49:30 42° SW 21:51:49 82° NW 21:58:09 10° NNE
Cosmos 2366 rocket 3.9 21:48:38 10° N 21:54:50 79° E 21:55:56 62° SSE
Spot 4 3.7 21:55:19 84° E 21:55:22 84° ENE 22:00:16 10° NNW
Cosmos 2084 Rocket 3.8 21:55:35 10° NW 21:59:14 64° NW 21:59:14 64° NW
Cosmos 2341 Rocket 4.3 21:56:23 10° NNW 22:02:40 60° W 22:04:08 48° SW
Cosmos 1862 Rocket 4.0 22:10:39 56° NW 22:10:39 56° NW 22:14:34 10° N
Cosmos 1937 Rocket 4.0 22:09:31 47° WSW 22:10:30 54° WNW 22:15:35 10° NNE
Cosmos 1703 Rocket 4.5 22:11:43 41° NE 22:11:43 41° NE 22:15:03 10° NNE
Cosmos 489 Rocket 4.3 22:06:09 10° NNW 22:12:24 80° WSW 22:13:17 66° S
SL-24 R/B - RUBIN 2 4.5 22:08:33 10° NW 22:13:07 45° W 22:13:07 45° W
Cosmos 1943 Rocket 2.5 22:13:55 49° WSW 22:15:13 63° WNW 22:20:48 10° NNE
Cosmos 2218 Rocket 4.0 22:10:57 10° NNW 22:17:11 70° W 22:18:16 59° SSW
Cosmos 2369 Rocket 2.0 22:17:10 76° SE 22:17:17 76° ESE 22:22:56 10° NNE
Meteor 1-19 Rocket 4.3 22:19:24 56° WSW 22:20:03 61° WNW 22:25:25 10° N
Gbstr 26 Del rocket 3.9 22:15:18 10° WNW 22:22:32 89° NNE 22:23:48 60° ESE
COBE Rocket 3.9 22:24:30 73° ENE 22:24:31 74° ENE 22:29:40 10° N
Cosmos 1238 Rocket 4.3 22:18:46 10° NNW 22:24:33 44° W 22:25:13 42° WSW
Cosmos 1048 Rocket 4.2 22:20:03 10° NNW 22:25:18 59° ENE 22:25:40 57° E
Cosmos 1607 4.0 22:26:50 61° SE 22:27:08 62° ESE 22:33:33 10° NE
Gblst 52 Del rocket 4.4 22:20:49 10° WNW 22:27:41 80° NNE 22:29:37 46° ESE
Okean 1-7 3.6 22:31:00 52° NNE 22:31:00 52° NNE 22:34:19 10° NNE
Thor Agena Rocket 3.9 22:28:16 10° NNE 22:33:11 55° E 22:33:11 55° E
Cosmos 1818 4.0 22:29:25 10° NW 22:34:12 48° W 22:34:12 48° W
Cosmos 2298 Rocket 4.1 22:35:33 65° E 22:35:33 65° E 22:40:30 10° NNE
Cosmos 1656 Rocket 3.6 22:35:34 66° E 22:35:34 66° E 22:40:49 10° NNE
Nadezhda 3 Rocket 4.0 22:35:11 62° SE 22:35:54 67° E 22:42:04 10° NNE
ALOS 2 3.2 22:41:06 50° NW 22:41:06 50° NW 22:44:39 10° NNW
Cosmos 2263 4.1 22:43:18 80° SSW 22:43:39 88° ESE 22:49:29 10° NNE
Meteor 2-4 Rocket 3.9 22:47:05 58° WSW 22:47:43 62° WNW 22:53:20 10° N
Cosmos 1356 Rocket 4.2 22:44:06 10° N 22:47:36 51° NNE 22:47:36 51° NNE
Meteor 1-13 Rocket 4.1 22:51:57 74° ESE 22:52:06 75° E 22:57:38 10° NNE
BREEZE-M DEB (TANK) 3.7 22:46:54 10° WNW 22:58:38 74° SW 22:58:40 74° SSW
PSLV R/B 4.4 22:57:19 10° NNE 23:00:45 46° ENE 23:00:45 46° ENE
Resurs 1-4 Rocket 4.4 23:00:40 10° ENE 23:02:36 12° E 23:03:35 11° E
Sich 1 Rocket 4.0 22:59:58 10° N 23:04:02 59° NE 23:04:02 59° NE
Cosmos 2150 Rocket 4.0 23:04:29 75° W 23:04:38 76° WNW 23:09:59 10° NNE
RESURS DK-1 3.4 23:00:42 10° NNW 23:03:31 41° NW 23:03:31 41° NW
SeaSat 1 2.5 23:03:57 10° NNE 23:08:32 69° E 23:08:32 69° E
Cosmos 1833 4.1 23:03:29 10° NNW 23:09:15 75° WSW 23:09:23 75° SW
Meteor 1-12 Rocket 4.2 23:06:31 10° NNW 23:12:23 72° W 23:12:43 70° SW
Cosmos 2239 Rocket 4.4 23:06:28 10° NNW 23:12:46 74° W 23:13:34 65° SW
USA 215 3.2 23:13:57 34° ESE 23:17:04 86° NE 23:23:39 10° NW
ISS -1.4 23:18:16 24° NNE 23:18:16 24° NNE 23:20:10 10° NE
Cosmos 494 Rocket 4.1 23:15:25 10° NNW 23:20:07 62° WNW 23:20:07 62° WNW
Cosmos 1300 Rocket 3.9 23:17:57 10° N 23:21:41 63° N 23:21:41 63° N
Okean 2 Rocket 3.4 23:20:06 10° N 23:23:56 62° NNE 23:23:56 62° NNE
ATLAS 2AS CENTAUR R/B 4.4 23:20:40 10° WNW 23:24:29 17° W 23:24:29 17° W
Cosmos 2151 Rocket 4.1 23:20:49 10° N 23:25:02 56° ENE 23:25:02 56° ENE
Cosmos 1867 4.1 23:25:56 44° W 23:27:05 52° NW 23:32:27 10° NNE
Cosmos 1125 Rocket 3.7 23:26:49 60° W 23:27:07 61° WNW 23:32:18 10° NNE
Cosmos 44 Rocket 3.4 23:25:46 10° NNW 23:31:01 77° NE 23:31:23 72° E
CZ-4 R/B 4.4 23:28:52 10° NNE 23:33:29 47° E 23:33:29 47° E
ATLAS CENTAUR R/B 2.4 23:38:29 37° NNW 23:38:29 37° NNW 23:41:23 10° NNE
USA 281 3.7 23:36:59 25° SE 23:40:50 56° ENE 23:47:15 10° NNW
YAOGAN 11 4.3 23:41:08 65° NE 23:41:08 65° NE 23:45:08 10° N
Cosmos 1934 Rocket 3.9 23:35:22 10° NNW 23:41:26 65° W 23:42:09 60° SW
Cosmos 2344 4.3 23:32:11 10° NW 23:41:41 78° WSW 23:51:07 22° SSE
Cosmos 1726 3.8 23:40:25 10° NNE 23:43:27 28° ENE 23:43:27 28° ENE
Meteor 1-22 Rocket 4.4 23:37:50 10° N 23:43:51 75° ENE 23:45:14 54° SE
Cosmos 1339 Rocket 4.4 23:42:53 61° SSW 23:44:06 85° W 23:50:32 10° N
USA 81 3.9 23:44:58 10° N 23:50:16 83° W 23:50:37 77° SSW
Lacrosse 5 1.9 23:54:51 66° ESE 23:54:51 66° ESE 23:59:43 10° NE
